STARLINK-33592 (62765 NORAD) Tracking and Keplerian Element Data

This shows tracking and keplerian element data for the satellite.

Feedback or suggestion? Click here.




ElementValue
Catalog62765
NameSTARLINK-33592
Epoch Orbit5217
Epoch Day354.16234894
Epoch Year2025
RAAN331.958
Inclination53.1608
Eccentricity0.0001322
Argument of Perigee84.76
Mean Anonmoly275.3551
Mean Motion15.30192362
Decay Rate0.0001715
L11 62765U 25015H 25354.16234894 .00017150 00000+0 58997-3 0 9999
L22 62765 53.1608 331.9580 0001322 84.7600 275.3551 15.30192362 52178



Live tracking and technical data element details for STARLINK-33592 (NORAD 62765). STARLINK-33592 can be tracked NOW for your location showing map with azimuth and elevation plus other details from your city location.







IsCatalogInMostPopularTable: catalog: 62765, numindb: 230
Update: records affected: 1



GetName: 62765 STARLINK-33592

Hit Count: updated at: Fri, 16 Jan 2026 04:10:14 GMT